Regional Weather Roundup
Issued by NWS Sioux Falls, SD

Home | Current Version | Previous Version | Graphics & Text | Print | Product List | Glossary Off
Versions: 1 2 3 4 5 6 7 8 9 10 11 12 13 14 15 16 17 18 19 20 21 22 23 24 25 26 27 28 29 30 31 32 33 34 35 36 37 38 39 40 41 42 43 44 45 46 47 48 49 50

000
ASUS43 KFSD 300610
RWRFSD

WEATHER ROUNDUP FOR SE SOUTH DAKOTA/SW MINNESOTA/NW IOWA
NATIONAL WEATHER SERVICE SIOUX FALLS SD
100 AM CDT THU MAR 30 2017

NOTE: "FAIR" INDICATES FEW OR NO CLOUDS BELOW 12,000 FEET WITH NO
SIGNIFICANT WEATHER AND OR OBSTRUCTIONS TO VISIBILITY.


SDZ038>040-050-052>070-300700-
SOUTHEAST SOUTH DAKOTA

CITY           SKY/WX    TMP DP  RH WIND       PRES   REMARKS
BROOKINGS      CLOUDY    38  35  89 E10       29.97F
CHAMBERLAIN    CLOUDY    41  39  91 E5        29.98F
6HR MIN TEMP:  41; 6HR MAX TEMP:  52;

HURON          CLOUDY    41  38  89 E7        29.99F
6HR MIN TEMP:  41; 6HR MAX TEMP:  50;

MADISON        CLOUDY    37  37 100 E14       29.97F
MITCHELL       CLOUDY    41  36  82 NE7       29.98F
6HR MIN TEMP:  41; 6HR MAX TEMP:  47; 6HR PCP: TRACE;

SIOUX FALLS    CLOUDY    38  38 100 NE14      29.94F
6HR MIN TEMP:  38; 6HR MAX TEMP:  41; 6HR PCP:  0.01;

WINNER         CLOUDY    41  37  86 E7        29.96F
YANKTON        CLOUDY    37  36  93 NE13      29.92F
$$

MNZ071-072-080-081-089-090-097-098-300700-
SOUTHWEST MINNESOTA

CITY           SKY/WX    TMP DP  RH WIND       PRES   REMARKS
FAIRMONT       CLOUDY    39  36  87 E22       29.93F
JACKSON          N/A     36  36 100 NE14      29.94F FOG
LUVERNE        CLOUDY    36  34  93 NE10G17   29.94F FOG
MARSHALL       NOT AVBL
MONTEVIDEO     CLOUDY    39  37  93 SE9       30.03F
PIPESTONE      CLOUDY    37  34  87 E9        29.95F HAZE
REDWOOD FALLS  CLOUDY    40  37  89 E7        30.01F
TRACY          DRIZZLE   39  39  98 E15       29.99F
WINDOM         DRIZZLE   37  37 100 NE15      29.95F
WORTHINGTON    CLOUDY    37  36  96 NE15      29.94F
$$

IAZ001>003-012>014-020>022-031-032-NEZ013-014-SDZ071-300700-
NORTHWEST IOWA

CITY           SKY/WX    TMP DP  RH WIND       PRES   REMARKS
CHEROKEE       CLOUDY    39  38  95 E16G22    29.89S
DENISON        CLOUDY    39  39 100 E22       29.80F
ESTHERVILLE    CLOUDY    38  38 100 NE16      29.91F
LE MARS        CLOUDY    41  37  87 NE14G21   29.90F
ORANGE CITY    CLOUDY    39  37  93 E15G23    29.90F
SHELDON        CLOUDY    39  36  87 E17G29    29.90F
SIOUX CITY     LGT RAIN  40  37  89 E17       29.86F
6HR MIN TEMP:  40; 6HR MAX TEMP:  42; 6HR PCP: TRACE;

SPENCER        CLOUDY    39  37  92 E21       29.91S
6HR MIN TEMP:  39; 6HR MAX TEMP:  40; 6HR PCP:  0.03;

STORM LAKE     CLOUDY    37  37 100 E18G26    29.86S
$$

ABBREVIATIONS USED IN REMARKS
   TC - TEMPERATURE IN CELSIUS
  WCI - WIND CHILL INDEX
   HX - HEAT INDEX
  VSB - VISIBILITY





USA.gov is the U.S. government's official web portal to all federal, state and local government web resources and services.